Regional Weather Roundup
Issued by NWS

Home | Current Version | Previous Version | Text Only | Print | Product List | Glossary On
Versions: 1 2 3 4 5 6 7 8 9 10 11 12 13 14 15 16 17 18 19 20 21 22 23 24 25 26 27 28 29 30 31 32 33 34 35 36 37 38 39 40 41 42 43 44 45 46 47 48 49 50
000
ASUS44 KEWX 310202
RWRTX
SOUTH TEXAS REGIONAL WEATHER ROUNDUP
NATIONAL WEATHER SERVICE AUSTIN/SAN ANTONIO TX
900 PM CDT WED JUL 30 2014

NOTE: "FAIR" INDICATED FEW OR NO CLOUDS BELOW 12,000 FEET WITH NO
SIGNIFICANT WEATHER AND/OR OBSTRUCTIONS TO VISIBILITY.

* - THESE STATIONS ARE NOT NWS OR FAA STATIONS...AND ARE NOT SUBJECT
    TO NWS AND FAA QUALITY CONTROL.

TXZ171-172-183>190-310300-
TEXAS HILL COUNTRY AND EDWARDS PLATEAU

CITY           SKY/WX    TMP DP  RH WIND       PRES   REMARKS
JUNCTION       CLEAR     92  49  22 S12       29.92R
*LLANO         PTCLDY    91  55  29 S6        29.93R
BURNET         PTCLDY    88  57  34 SE5       29.94S
*HORSESHOE BAY PTCLDY    89  54  29 S3        29.92R
*KERRVILLE     CLEAR     87  58  38 SE6       29.95R
*FREDERICKSBRG PTCLDY    86  55  33 SE3       29.95S
*ROCKSPRINGS   CLEAR     90  48  24 SE9       29.98S
*BOERNE STAGE  CLEAR     82  54  36 CALM      29.94S
*CASTROVILLE   CLEAR     92  55  28 SE12G18   29.90S HX  90
HONDO          CLEAR     91  57  31 SE9       29.90S
*UVALDE        CLEAR     93  55  27 SE6       29.88S HX  91
DEL RIO        CLEAR     97  49  19 SE10      29.82S HX  94
LAUGHLIN AFB   CLEAR     95  51  22 SE8       29.85R HX  92
CARRIZO SPRGS  CLEAR     95  55  26 SE6       29.83S HX  93
$$

TXZ173-191>194-202-209-217>225-228-310300-
CENTRAL AND SOUTH CENTRAL TEXAS

CITY           SKY/WX    TMP DP  RH WIND       PRES   REMARKS
GEORGETOWN     CLEAR     88  68  51 MISG      29.90S HX  91
AUSTIN/BERGSTM MOCLDY    90  62  39 SE6       29.89S HX  90
AUSTIN/MABRY   PTCLDY    90  62  39 SE5       29.90S HX  90
*AUSTIN/EXEC   PTCLDY    86  66  51 SE8       29.91S
*LAGO VISTA    PTCLDY    87  59  38 SE6       29.93S
SAN MARCOS     PTCLDY    90  59  35 S13       29.91S
NEW BRAUNFELS  CLEAR     89  58  34 S15       29.89S
RANDOLPH AFB   CLEAR     90  60  36 SE18      29.91R
PT SAN ANTONIO CLEAR     92  62  36 SE16      29.88S HX  92
SAN ANTONIO    MOCLDY    92  59  33 SE15      29.90S HX  91
STINSON FIELD  CLEAR     91  62  37 SE13G24   29.88R HX  91
*PLEASANTON    CLEAR     90  63  39 SE17G23   29.89R HX  91
*LA GRANGE     PTCLDY    89  69  51 S8        29.90S HX  93
*GIDDINGS      PTCLDY    85  68  55 CALM      29.95S
*GONZALES      PTCLDY    89  62  40 S16G22    29.90S
$$

TXZ163>164-176>182-195>201-210>213-226-227-235-310300-
SOUTHEAST TEXAS

CITY           SKY/WX    TMP DP  RH WIND       PRES   REMARKS
COLLEGE STN    PTCLDY    86  71  60 SE10      29.92S HX  91
*BRYAN         PTCLDY    84  71  65 SE13      29.92S
*CALDWELL      PTCLDY    88  70  55 SE14G22   29.94F HX  92
*CROCKETT      PTCLDY    84  73  70 E5        29.98R HX  91
*BRENHAM       PTCLDY    86  72  62 SE13G18   29.94R HX  92
HUNTSVILLE     CLEAR     85  70  60 VRB5      29.95S
CONROE         CLEAR     82  72  71 SE7       29.96S
HOUSTON BUSH   MOCLDY    82  73  74 SE13      29.96S
HOUSTON HOBBY  MOCLDY    83  73  72 SE8       29.96S
*HOUSTON SW AP PTCLDY    81  73  76 E6        29.97S
PEARLAND       PTCLDY    84  73  69 SE7       29.98R HX  90
HOUSTON HOOKS  PTCLDY    84  73  69 SE9       29.95S HX  90
ELLINGTON FLD  MOCLDY    84  75  74 SE6       29.98S HX  92
SUGAR LAND     PTCLDY    85  74  69 SE14      29.96R HX  92
*HOUSTON EXEC  MOCLDY    84  73  70 SE16      29.96S HX  91
*CLEVELAND MUN PTCLDY    78  75  89 CALM      29.97S
*WHARTON       CLEAR     82  72  73 SE7       29.96S
$$

TXZ214>216-236>238-310300-
THE UPPER TEXAS COAST

CITY           SKY/WX    TMP DP  RH WIND       PRES   REMARKS
*ORANGE        CLEAR     80  72  77 CALM      30.00S
PORT ARTHUR    PTCLDY    78  72  81 SE7       29.98R
GALVESTON      PTCLDY    84  74  71 SE14      29.98S HX  91
ANGLETON       CLEAR     81  74  79 SE6       29.96S
*BAY CITY      CLEAR     82  76  84 SE6       29.95F
PALACIOS       CLEAR     83  74  74 SE14      29.94F
$$

TXZ229>234-239>247-310300-
TEXAS COASTAL BEND AND RIO GRANDE PLAINS

CITY           SKY/WX    TMP DP  RH WIND       PRES   REMARKS
VICTORIA       CLEAR     83  69  62 SE12      29.94S
*BEEVILLE      CLEAR     83  71  66 SE13      29.93R
ROCKPORT       CLEAR     83  74  74 SE16      29.94R
*PORT ARANSAS  CLEAR     82  75  80 SE10G18   29.93S
*PORT LAVACA   CLEAR     80  73  80 SE8       29.94S
*INGLESIDE     CLEAR     84  74  71 SE16      29.93S HX  91
CORPUS CHRISTI PTCLDY    84  74  71 SE21G26   29.92S HX  91
CORPUS NAS     PTCLDY    83  77  82 SE18      29.93R HX  92
*ROBSTOWN      NOT AVBL
ALICE          CLEAR     84  73  69 SE18      29.91R HX  90
KINGSVILLE NAS PTCLDY    84  75  74 SE15G23   29.92R HX  92
COTULLA        CLEAR     94  68  42 SE23G31   29.85S HX  98
*FAITH RANCH   CLEAR     99  54  22 SE6       29.85S HX  96
LAREDO         CLEAR    100  62  28 SE10      29.85S HX 101
$$

TXZ248>255-310300-
DEEP SOUTH TEXAS

CITY           SKY/WX    TMP DP  RH WIND       PRES   REMARKS
BROWNSVILLE    PTCLDY    84  78  82 SE14G23   29.93R HX  95
PORT ISABEL    CLEAR     85  76  74 SE17      29.93R HX  94
*SOUTH PADRE   CLEAR     82  77  83 SE13      29.94R HX  91
HARLINGEN      PTCLDY    85  77  77 SE18      29.91R HX  95
*HEBBRONVILLE  CLEAR     89  73  58 E17G25    29.90R HX  96
MCALLEN        CLEAR     87  74  64 SE22G29   29.90R HX  95
*WESLACO       CLEAR     86  73  64 SE17G23   29.91R HX  93
FALFURRIAS     CLEAR     79  72  78 SE10G16   29.90R
EDINBURG       CLEAR     89  73  59 SE14G23   29.90R HX  96
*ZAPATA        NOT AVBL
$$

TXZ213>215-236>238-242>244-246-247-251-254-255-310300-
CMAN STATIONS

STATION/POSITION TIME  TEMP    WIND        PRES    WAVE
                       AIR SEA DIR/SP/G            HT/PER
                 (UTC) (F)     (DEG/KT/KT) (MB)    (FT/S)
SABINE PASS      0100   83 87  170/  5/  7 1015.4
SEA RIM ST PARK  0100   83     160/  7/  9 1015.8
NORTH JETTY/GLS  0100   83 89  150/ 12/ 14   N/A
EAGLE POINT      0100   84 88  160/ 13/ 15 1015.0
MORGANS POINT    0100   84 91  130/  8/ 12 1014.9
MISSION/ARANSAS  0100   83     130/ 17     1014.0
PORT O`CONNOR    0100          130/ 13/ 15   N/A
PORT ARANSAS     0100   82 84  120/ 13/ 15 1014.3
MALAQUITE BEACH  0100   81 81  120/ 14/ 16 1012.8
BAFFIN BAY       0100   82 85  140/ 14/ 19 1013.1
PORT ISABEL      0100   83 84  120/ 14/ 18 1013.9
$$

GMZ080-GMZ150>470-310300-
OFFSHORE BUOY REPORTS

STATION/POSITION TIME  TEMP    WIND        PRES    WAVE
                       AIR SEA DIR/SP/G            HT/PER
                 (UTC) (F)     (DEG/KT/KT) (MB)    (FT/S)
90 E PT ARANSAS  0200   84 85  120/ 10/ 12 1015.1    1/ 4
35 NE PT MANSFLD 0100   84 85  140/ 17/ 19 1013.1    2/ 3
200 E PT ISABEL  0100   85 89  100/  6/  8 1015.2    1
$$


USA.gov is the U.S. government's official web portal to all federal, state and local government web resources and services.